Istanbul, Turkey

10:10 PM +03 on April 27, 2017 (GMT +0300)
Ataturk

Weather History for LTBA - May, 2014

Change the Weather History Date:

Sunday, May 11, 2014

  Actual Average Record
Temperature  
Mean Temperature 60 °F -  
Max Temperature 63 °F 72 °F 75 °F (2007)
Min Temperature 55 °F 57 °F 44 °F (2003)
Degree Days  
Heating Degree Days 6    
Growing Degree Days 10 (Base 50)    
Moisture  
Dew Point 56 °F    
Average Humidity 88    
Maximum Humidity 94    
Minimum Humidity 73    
Precipitation  
Precipitation 0.20 in - - ()
Sea Level Pressure  
Sea Level Pressure 29.97 in    
Wind  
Wind Speed 3 mph ()    
Max Wind Speed 12 mph    
Max Gust Speed -    
Visibility 6.1 miles    
Events Rain    
Averages and records for this station are not official NWS values.
T = Trace of Precipitation, MM = Missing Value Source: Averaged Metar Reports

Daily Weather History Graph

Daily Weather History Graph

Search for Another Location

Airport or City:

Trip Planner

Search our weather history database for the weather conditions in past years. The results will help you decide how hot, cold, wet, or windy it might be!

Date:

Astronomy

May. 11, 2014 Rise Set
Actual Time 5:51 AM EEST 8:11 PM EEST
Civil Twilight 5:20 AM EEST 8:42 PM EEST
Nautical Twilight 4:42 AM EEST 9:20 PM EEST
Astronomical Twilight 4:00 AM EEST 10:02 PM EEST
Moon 4:45 PM EEST (5/11) 3:47 AM EEST (5/11)
Length of Visible Light 15h 21m
Length of Day
14h 20m
Waxing Gibbous, 87% of the Moon is Illuminated
May 11
Waxing Gibbous
May 14
Full
May 21
Last Quarter
May 28
New
Jun 5
First Quarter

Hourly Weather History & Observations

Time (EEST) Temp. Dew Point Humidity Pressure Visibility Wind Dir Wind Speed Gust Speed Precip Events Conditions
12:00 AM 57 °F 54 °F 88% 29.97 in 6 mi Calm Calm - - Rain Light Rain
12:20 AM 57.2 °F 53.6 °F 88% 29.95 in 6.2 mi Calm Calm - N/A Rain Light Rain
12:50 AM 57.2 °F 53.6 °F 88% 29.95 in 6.2 mi Calm Calm - N/A Rain Light Rain
1:20 AM 57.2 °F 53.6 °F 88% 29.95 in 6.2 mi Calm Calm - N/A Rain Light Rain
1:50 AM 57.2 °F 55.4 °F 94% 29.95 in 6.2 mi Calm Calm - N/A Rain Light Rain
2:20 AM 57.2 °F 55.4 °F 94% 29.95 in 6.2 mi WSW 2.3 mph - N/A   Mostly Cloudy
2:50 AM 57.2 °F 55.4 °F 94% 29.95 in 6.2 mi Calm Calm - N/A   Mostly Cloudy
3:00 AM 58 °F 56 °F 89% 29.95 in 6 mi Calm Calm - - Rain Light Rain
3:20 AM 57.2 °F 55.4 °F 94% 29.95 in 6.2 mi WSW 6.9 mph - N/A   Mostly Cloudy
3:50 AM 57.2 °F 55.4 °F 94% 29.95 in 6.2 mi WSW 8.1 mph - N/A   Mostly Cloudy
4:20 AM 57.2 °F 55.4 °F 94% 29.95 in 6.2 mi WSW 8.1 mph - N/A   Mostly Cloudy
4:50 AM 57.2 °F 55.4 °F 94% 29.95 in 6.2 mi WSW 6.9 mph - N/A   Mostly Cloudy
5:20 AM 57.2 °F 53.6 °F 88% 29.95 in 6.2 mi SW 6.9 mph - N/A   Mostly Cloudy
5:50 AM 57.2 °F 53.6 °F 88% 29.95 in 6.2 mi SW 6.9 mph - N/A   Mostly Cloudy
6:00 AM 57 °F 54 °F 84% 29.96 in 6 mi SW 6.9 mph - -   Partly Cloudy
6:20 AM 57.2 °F 53.6 °F 88% 29.95 in 6.2 mi Calm Calm - N/A   Mostly Cloudy
6:50 AM 57.2 °F 53.6 °F 88% 29.98 in 6.2 mi WSW 6.9 mph - N/A   Mostly Cloudy
7:20 AM 59.0 °F 55.4 °F 88% 29.98 in 6.2 mi WSW 5.8 mph - N/A   Mostly Cloudy
7:50 AM 59.0 °F 55.4 °F 88% 29.98 in 6.2 mi SW 5.8 mph - N/A   Mostly Cloudy
8:20 AM 59.0 °F 55.4 °F 88% 29.98 in 6.2 mi WSW 6.9 mph - N/A   Mostly Cloudy
8:50 AM 59.0 °F 55.4 °F 88% 29.98 in 6.2 mi SW 3.5 mph - N/A   Mostly Cloudy
9:00 AM 59 °F 57 °F 91% 29.98 in 6 mi SW 3.5 mph - -   Mostly Cloudy
9:20 AM 60.8 °F 57.2 °F 88% 29.98 in 6.2 mi SW 8.1 mph - N/A   Mostly Cloudy
9:50 AM 59.0 °F 57.2 °F 94% 29.98 in 6.2 mi SW 6.9 mph - N/A   Mostly Cloudy
10:20 AM 60.8 °F 57.2 °F 88% 29.98 in 6.2 mi SW 9.2 mph - N/A   Mostly Cloudy
10:50 AM 60.8 °F 59.0 °F 94% 29.98 in 6.2 mi SW 9.2 mph - N/A   Mostly Cloudy
11:20 AM 60.8 °F 57.2 °F 88% 29.98 in 6.2 mi SW 10.4 mph - N/A   Mostly Cloudy
11:50 AM 60.8 °F 57.2 °F 88% 29.98 in 6.2 mi SW 10.4 mph - N/A   Mostly Cloudy
12:00 PM 62 °F 58 °F 82% 30.00 in 6 mi SW 10.4 mph - -   Mostly Cloudy
12:20 PM 62.6 °F 59.0 °F 88% 29.98 in 6.2 mi SW 10.4 mph - N/A   Mostly Cloudy
12:50 PM 59.0 °F 57.2 °F 94% 29.98 in 6.2 mi SSW 11.5 mph - N/A Rain Light Rain
1:20 PM 59.0 °F 57.2 °F 94% 29.98 in 6.2 mi SSW 8.1 mph - N/A Rain Light Rain Showers
1:45 PM 59.0 °F 57.2 °F 94% 29.98 in 2.2 mi SSW 8.1 mph - N/A Rain Rain Showers
1:50 PM 59.0 °F 57.2 °F 94% 29.98 in 2.2 mi SSW 8.1 mph - N/A Rain Rain Showers
2:20 PM 59.0 °F 57.2 °F 94% 30.01 in 4.3 mi SSW 6.9 mph - N/A Rain Light Rain Showers
2:50 PM 60.8 °F 59.0 °F 94% 30.01 in 6.2 mi SW 3.5 mph - N/A Rain Light Rain Showers
3:00 PM 60 °F 58 °F 90% 30.00 in 6 mi SW 3.5 mph - - Rain Light Rain Showers
3:20 PM 60.8 °F 57.2 °F 88% 29.98 in 6.2 mi SSW 5.8 mph - N/A   Mostly Cloudy
3:50 PM 60.8 °F 57.2 °F 88% 29.98 in 6.2 mi SSW 4.6 mph - N/A   Mostly Cloudy
4:20 PM 62.6 °F 57.2 °F 82% 29.98 in 6.2 mi Calm Calm - N/A   Mostly Cloudy
4:50 PM 62.6 °F 57.2 °F 82% 29.98 in 6.2 mi Calm Calm - N/A   Scattered Clouds
5:20 PM 62.6 °F 57.2 °F 82% 29.98 in 6.2 mi SSW 2.3 mph - N/A   Scattered Clouds
5:50 PM 62.6 °F 57.2 °F 82% 29.98 in 6.2 mi Calm Calm - N/A   Scattered Clouds
6:00 PM 62 °F 56 °F 74% 29.98 in 12 mi Calm Calm - -   Partly Cloudy
6:20 PM 60.8 °F 55.4 °F 82% 29.95 in 6.2 mi Calm Calm - N/A   Scattered Clouds
6:50 PM 60.8 °F 55.4 °F 82% 29.95 in - Calm Calm - N/A   Clear
7:20 PM 60.8 °F 55.4 °F 82% 29.95 in 6.2 mi Calm Calm - N/A   Partly Cloudy
7:50 PM 59.0 °F 55.4 °F 88% 29.95 in 6.2 mi Calm Calm - N/A   Partly Cloudy
8:20 PM 59.0 °F 55.4 °F 88% 29.95 in - Calm Calm - N/A   Clear
8:50 PM 59.0 °F 53.6 °F 82% 29.95 in - Calm Calm - N/A   Clear
9:00 PM 59 °F 53 °F 73% 29.96 in 6 mi Calm Calm - -  
9:20 PM 59.0 °F 55.4 °F 88% 29.95 in - Calm Calm - N/A   Clear
9:50 PM 59.0 °F 55.4 °F 88% 29.98 in - Calm Calm - N/A   Clear
10:20 PM 59.0 °F 53.6 °F 82% 29.98 in - Calm Calm - N/A   Clear
10:50 PM 57.2 °F 53.6 °F 88% 29.98 in - Calm Calm - N/A   Clear
11:20 PM 57.2 °F 53.6 °F 88% 29.98 in - Calm Calm - N/A   Clear
11:50 PM 55.4 °F 51.8 °F 88% 29.98 in - Calm Calm - N/A   Clear